CW6617 Weather Reports


Display with metric or nautical units.
time (UTC)temp
F
wind
direction
speed
MPH
gust
MPH
rain 1hr
in
rain 24hr
in
rain mn
in
humidity
%
barometer
mb
20220516113206 69 230 6.0 13.0 0.00 0.21 0.03 75 1015.6
20220516111706 67 171 5.0 13.0 0.00 0.27 0.03 77 1015.5
20220516111206 67 186 6.0 12.0 0.00 0.28 0.03 80 1015.4
20220516110705 67 172 4.0 10.0 0.00 0.29 0.03 80 1015.5
20220516110205 67 194 7.0 13.0 0.00 0.31 0.03 79 1015.5
20220516104705 65 202 6.0 12.0 0.00 0.36 0.03 84 1015.5
20220516104205 66 190 10.0 14.0 0.00 0.36 0.03 83 1015.4
20220516103705 65 166 9.0 15.0 0.00 0.36 0.03 86 1015.4
20220516103205 64 205 5.0 13.0 0.00 0.36 0.03 88 1015.4
20220516101706 62 185 9.0 13.0 0.00 0.36 0.03 89 1015.3
20220516101205 62 184 6.0 13.0 0.00 0.36 0.03 89 1015.1
20220516100705 62 186 6.0 12.0 0.00 0.36 0.03 89 1015.1
20220516100205 62 201 5.0 14.0 0.00 0.36 0.03 90 1015.0
20220516094706 62 195 5.0 9.0 0.00 0.36 0.03 91 1014.7
20220516094206 61 216 4.0 8.0 0.00 0.36 0.03 92 1014.7
20220516093705 61 227 4.0 7.0 0.00 0.36 0.03 92 1014.5
20220516093205 61 214 3.0 10.0 0.00 0.36 0.03 92 1014.4
20220516091705 61 208 5.0 7.0 0.00 0.36 0.03 92 1014.3
20220516091205 61 186 5.0 7.0 0.00 0.36 0.03 93 1014.2
20220516090705 61 185 6.0 9.0 0.00 0.36 0.03 94 1014.1
20220516090205 60 181 3.0 12.0 0.00 0.36 0.03 95 1014.1
20220516084705 59 187 6.0 12.0 0.00 0.36 0.03 95 1014.1
20220516084206 59 191 2.0 7.0 0.00 0.36 0.03 95 1013.9
20220516083705 59 215 5.0 8.0 0.00 0.36 0.03 95 1013.9
20220516083206 59 239 2.0 10.0 0.00 0.36 0.03 95 1013.8
20220516081705 59 190 3.0 10.0 0.00 0.36 0.03 96 1013.7
20220516081205 59 200 2.0 7.0 0.00 0.36 0.03 96 1013.6
20220516080705 58 212 4.0 9.0 0.00 0.36 0.03 96 1013.5
20220516080206 58 228 5.0 15.0 0.00 0.36 0.03 96 1013.5
20220516074706 58 192 3.0 9.0 0.00 0.36 0.03 96 1013.4
20220516074206 58 206 3.0 7.0 0.00 0.36 0.03 96 1013.2
20220516073706 59 194 2.0 8.0 0.00 0.36 0.03 96 1013.3
20220516073205 59 169 3.0 10.0 0.00 0.36 0.03 96 1013.1
20220516071705 59 188 4.0 7.0 0.00 0.36 0.03 97 1012.9
20220516071205 58 198 5.0 8.0 0.00 0.36 0.03 97 1012.8
20220516070705 58 200 4.0 12.0 0.00 0.36 0.03 97 1012.8
20220516070205 58 180 5.0 10.0 0.00 0.36 0.03 97 1012.7
20220516064706 58 188 4.0 10.0 0.00 0.36 0.03 97 1012.1
20220516064205 58 195 3.0 8.0 0.00 0.36 0.03 97 1012.0
20220516063706 58 183 3.0 6.0 0.00 0.36 0.03 97 1012.0
20220516063206 58 188 3.0 13.0 0.00 0.36 0.03 97 1012.0
20220516061706 58 191 4.0 9.0 0.00 0.37 0.03 97 1011.7
20220516061205 58 189 2.0 7.0 0.00 0.37 0.03 97 1011.6
20220516060705 57 187 5.0 7.0 0.00 0.38 0.03 97 1011.5
20220516060205 57 187 3.0 6.0 0.00 0.38 0.03 97 1011.5
20220516054706 57 185 3.0 5.0 0.00 0.38 0.03 97 1011.1
20220516054205 56 168 2.0 5.0 0.00 0.38 0.03 96 1010.9
20220516053705 56 150 2.0 5.0 0.00 0.38 0.03 96 1010.9
20220516053206 56 158 1.0 6.0 0.00 0.38 0.03 96 1011.0
20220516051705 56 177 2.0 3.0 0.00 0.38 0.03 96 1010.7
20220516051206 56 182 2.0 3.0 0.00 0.38 0.03 96 1010.6
20220516050705 56 184 2.0 3.0 0.00 0.38 0.03 96 1010.6
20220516050206 56 184 1.0 3.0 0.00 0.39 0.03 96 1010.5
20220516044706 56 161 0.0 0.0 0.00 0.40 0.03 96 1010.1
20220516044205 56 161 0.0 0.0 0.00 0.40 0.03 96 1010.1
20220516043705 56 161 0.0 0.0 0.00 0.40 0.03 96 1010.3
20220516043205 56 161 0.0 0.0 0.01 0.40 0.03 96 1010.3
20220516041706 56 161 0.0 0.0 0.01 0.42 0.03 96 1010.2
20220516041205 56 161 0.0 0.0 0.02 0.43 0.03 96 1010.1
20220516040705 56 161 0.0 0.0 0.02 0.43 0.03 96 1009.9
20220516040205 56 161 0.0 6.0 0.02 0.43 0.03 96 1009.9
20220516034706 56 169 3.0 5.0 0.02 0.43 0.03 96 1010.0
20220516034205 56 184 4.0 6.0 0.02 0.43 0.03 96 1009.9
20220516033705 56 94 2.0 5.0 0.02 0.43 0.03 96 1009.3
20220516033205 56 101 3.0 7.0 0.02 0.43 0.02 96 1009.3
20220516031705 56 75 3.0 5.0 0.02 0.43 0.02 96 1009.5
20220516031205 56 27 3.0 6.0 0.01 0.42 0.02 95 1009.5
20220516030706 56 241 0.0 2.0 0.00 0.41 0.01 95 1010.1
20220516030205 56 241 1.0 2.0 0.00 0.41 0.01 95 1010.2
20220516024706 56 314 0.0 1.0 0.00 0.41 0.01 95 1010.4
20220516024206 56 314 1.0 2.0 0.00 0.41 0.01 95 1010.5
20220516023706 56 314 0.0 1.0 0.00 0.41 0.01 95 1010.4
20220516023205 56 314 1.0 5.0 0.00 0.41 0.01 95 1010.3
20220516021706 56 38 2.0 5.0 0.00 0.41 0.01 95 1009.9
20220516021206 56 26 2.0 3.0 0.00 0.41 0.01 95 1009.9
20220516020705 56 22 2.0 3.0 0.00 0.41 0.01 95 1010.1
20220516020206 56 39 1.0 6.0 0.00 0.41 0.01 95 1010.1
20220516014706 55 47 2.0 5.0 0.00 0.41 0.01 95 1009.9
20220516014205 55 38 3.0 5.0 0.00 0.41 0.01 95 1010.0
20220516013706 55 40 1.0 3.0 0.00 0.41 0.01 95 1010.1
20220516013205 55 38 1.0 3.0 0.00 0.41 0.01 95 1010.3
20220516011705 56 44 2.0 2.0 0.00 0.41 0.01 95 1010.4
20220516011206 56 46 3.0 5.0 0.00 0.41 0.01 95 1010.4
20220516010705 56 39 2.0 5.0 0.00 0.41 0.01 94 1010.4
20220516010206 56 277 0.0 2.0 0.00 0.41 0.01 94 1010.5
20220516004705 56 277 0.0 0.0 0.00 0.41 0.01 94 1010.9
20220516004205 56 277 0.0 0.0 0.00 0.41 0.01 94 1011.0
20220516003705 56 277 1.0 5.0 0.00 0.41 0.01 94 1011.3
20220516003205 56 203 0.0 3.0 0.00 0.41 0.01 94 1011.2
20220516001705 56 153 0.0 0.0 0.01 0.41 0.01 94 1010.5
20220516001206 56 153 1.0 2.0 0.01 0.41 0.01 94 1010.5
20220516000705 57 137 1.0 2.0 0.01 0.41 0.01 94 1010.4
20220516000205 57 112 1.0 5.0 0.01 0.41 0.01 94 1010.4
20220515234706 57 96 2.0 8.0 0.02 0.41 0.01 94 1010.4
20220515234205 57 126 3.0 8.0 0.02 0.41 0.01 93 1010.2
20220515233705 57 93 4.0 8.0 0.03 0.41 0.01 93 1010.0
20220515233206 57 82 5.0 10.0 0.03 0.41 0.01 93 1010.0
20220515231705 58 108 4.0 9.0 0.04 0.40 0.00 93 1010.1
20220515231205 58 73 3.0 8.0 0.04 0.40 0.00 93 1010.2
20220515230705 58 42 4.0 9.0 0.04 0.40 0.00 93 1010.1
20220515230205 58 83 4.0 10.0 0.04 0.40 0.00 93 1010.1
20220515224706 58 77 2.0 7.0 0.04 0.39 0.39 93 1010.5
20220515224206 58 52 2.0 5.0 0.03 0.39 0.39 92 1010.6
20220515223705 58 51 3.0 6.0 0.02 0.38 0.38 92 1010.8
20220515223205 58 40 2.0 5.0 0.02 0.38 0.38 92 1010.9
20220515221705 58 56 2.0 5.0 0.01 0.36 0.36 91 1011.2
20220515221205 58 357 1.0 5.0 0.01 0.36 0.36 91 1011.3
20220515220705 58 59 1.0 2.0 0.01 0.36 0.36 90 1011.3
20220515220205 58 40 1.0 3.0 0.01 0.36 0.36 90 1011.2
20220515214705 58 170 1.0 2.0 0.00 0.35 0.35 89 1011.5
20220515214206 58 170 1.0 2.0 0.00 0.35 0.35 89 1011.5
20220515213705 58 169 2.0 6.0 0.00 0.35 0.35 89 1011.3
20220515213205 58 306 0.0 7.0 0.00 0.35 0.35 88 1011.2
20220515211706 58 52 3.0 6.0 0.00 0.35 0.35 88 1010.8
20220515211205 58 91 2.0 7.0 0.00 0.35 0.35 88 1010.9
20220515210705 58 66 4.0 7.0 0.00 0.35 0.35 88 1010.9
20220515210205 58 69 2.0 10.0 0.00 0.35 0.35 87 1010.9
20220515204706 59 71 3.0 9.0 0.00 0.35 0.35 88 1011.0
20220515204207 59 61 3.0 6.0 0.00 0.35 0.35 87 1011.0
20220515203706 59 64 2.0 7.0 0.00 0.35 0.35 87 1011.1
20220515203206 59 124 3.0 8.0 0.00 0.35 0.35 87 1011.1
20220515201705 59 78 5.0 10.0 0.00 0.35 0.35 87 1010.7
20220515201205 59 64 3.0 5.0 0.00 0.35 0.35 88 1010.7
20220515200705 59 92 3.0 7.0 0.00 0.35 0.35 88 1010.7
20220515200205 59 131 2.0 8.0 0.00 0.35 0.35 88 1010.7
20220515194706 59 43 3.0 8.0 0.00 0.35 0.35 89 1010.6
20220515194205 59 33 4.0 8.0 0.00 0.35 0.35 89 1010.7
20220515193705 59 64 2.0 7.0 0.00 0.35 0.35 89 1010.7
20220515193205 59 102 2.0 12.0 0.00 0.35 0.35 89 1010.8
20220515191705 60 130 1.0 6.0 0.00 0.35 0.35 90 1011.0
20220515191205 60 27 2.0 3.0 0.00 0.35 0.35 90 1011.1
20220515190706 60 48 3.0 8.0 0.00 0.35 0.35 90 1011.2
20220515190205 60 28 0.0 7.0 0.00 0.35 0.35 90 1011.1
20220515184706 60 79 2.0 6.0 0.00 0.35 0.35 91 1011.3
20220515184206 60 34 2.0 9.0 0.00 0.35 0.35 91 1011.1
20220515183705 61 115 3.0 9.0 0.00 0.35 0.35 91 1011.0
20220515183205 61 27 3.0 10.0 0.00 0.35 0.35 92 1011.0
20220515181706 61 4 3.0 8.0 0.00 0.35 0.35 93 1010.9
20220515181206 60 70 5.0 12.0 0.00 0.35 0.35 93 1010.9
20220515180706 60 65 5.0 10.0 0.00 0.35 0.35 93 1010.8
20220515180206 60 38 2.0 13.0 0.00 0.35 0.35 94 1010.8
20220515174705 60 55 5.0 7.0 0.00 0.35 0.35 94 1011.1
20220515174206 60 59 5.0 8.0 0.00 0.35 0.35 94 1011.2
20220515173705 60 39 5.0 10.0 0.00 0.35 0.35 94 1011.3
20220515173211 60 39 5.0 13.0 0.00 0.35 0.35 94 1011.3
20220515171706 60 96 5.0 12.0 0.00 0.35 0.35 94 1011.5
20220515171206 60 73 4.0 9.0 0.00 0.35 0.35 94 1011.6
20220515170705 60 54 2.0 7.0 0.00 0.35 0.35 94 1011.6
20220515170205 60 35 2.0 9.0 0.00 0.35 0.35 94 1011.7
20220515164705 60 96 4.0 12.0 0.00 0.35 0.35 94 1011.8
20220515164206 60 42 3.0 9.0 0.00 0.35 0.35 94 1011.8
20220515163705 60 96 3.0 10.0 0.00 0.35 0.35 94 1011.8
20220515163205 60 65 4.0 13.0 0.00 0.35 0.35 94 1011.8
20220515161705 60 69 3.0 8.0 0.00 0.35 0.35 94 1011.8
20220515161205 60 36 5.0 13.0 0.00 0.35 0.35 94 1011.8
20220515160706 60 52 3.0 12.0 0.00 0.35 0.35 94 1011.9
20220515160206 60 73 6.0 14.0 0.00 0.35 0.35 95 1012.0
20220515154706 60 31 4.0 13.0 0.00 0.35 0.35 95 1012.2
20220515154206 60 54 6.0 13.0 0.00 0.35 0.35 95 1012.3
20220515153706 59 46 6.0 9.0 0.00 0.35 0.35 95 1012.4
20220515153205 59 71 5.0 13.0 0.01 0.35 0.35 95 1012.5
20220515151706 59 45 6.0 12.0 0.01 0.35 0.35 95 1012.6
20220515151205 58 39 7.0 10.0 0.01 0.35 0.35 95 1012.8
20220515150705 58 49 5.0 12.0 0.01 0.35 0.35 95 1013.0
20220515150205 58 46 3.0 10.0 0.01 0.35 0.35 94 1013.1
20220515144706 58 36 3.0 7.0 0.01 0.35 0.35 94 1013.3
20220515144205 58 44 4.0 8.0 0.01 0.35 0.35 94 1013.5
20220515143706 58 46 3.0 8.0 0.01 0.35 0.35 94 1013.8
20220515143205 59 39 3.0 6.0 0.00 0.35 0.35 94 1013.8
20220515141706 59 51 3.0 7.0 0.01 0.35 0.35 94 1014.2
20220515141206 59 38 3.0 6.0 0.01 0.35 0.35 94 1014.2
20220515140706 59 47 4.0 7.0 0.01 0.35 0.35 94 1014.2
20220515140206 59 84 2.0 9.0 0.02 0.35 0.35 94 1014.3
20220515134705 58 60 2.0 7.0 0.02 0.35 0.35 94 1014.5
20220515134205 58 79 2.0 7.0 0.02 0.35 0.35 94 1014.5
20220515133705 58 60 1.0 5.0 0.03 0.35 0.35 94 1014.6
20220515133205 58 127 2.0 10.0 0.04 0.35 0.35 94 1014.5
20220515131705 58 98 5.0 9.0 0.06 0.34 0.34 94 1014.5
20220515131206 58 91 2.0 8.0 0.06 0.34 0.34 94 1014.5
20220515130706 58 94 3.0 13.0 0.07 0.34 0.34 94 1014.5
20220515130206 58 40 5.0 9.0 0.06 0.33 0.33 94 1014.3
20220515124705 58 73 3.0 7.0 0.06 0.32 0.32 93 1014.8
20220515124206 57 115 2.0 10.0 0.07 0.32 0.32 93 1014.9
20220515123706 57 95 5.0 13.0 0.08 0.31 0.31 93 1015.0
20220515123205 57 113 1.0 8.0 0.09 0.31 0.31 92 1015.2
20220515121705 57 176 2.0 6.0 0.12 0.28 0.28 92 1015.2
20220515121206 57 210 1.0 3.0 0.12 0.28 0.28 92 1015.3
20220515120705 58 77 2.0 5.0 0.13 0.27 0.27 92 1015.3
20220515120205 58 119 2.0 6.0 0.15 0.27 0.27 91 1015.3
20220515114705 58 144 2.0 5.0 0.19 0.26 0.26 91 1015.7
20220515114206 58 165 2.0 6.0 0.18 0.25 0.25 90 1015.9
20220515113705 58 169 2.0 5.0 0.17 0.24 0.24 89 1015.9